Tracking 31027 objects as of 19-Jul-2025
HD Live streaming from Space Station
objects crossing your sky now

STARLINK-6138

Track STARLINK-6138 now!
10-day predictions
STARLINK-6138 is classified as:


NORAD ID: 57329
Int'l Code: 2023-099B
Perigee: 565.4 km
Apogee: 567.0 km
Inclination: 43.0 °
Period: 95.8 minutes
Semi major axis: 6937 km
RCS: Unknown
Launch date: July 16, 2023
Source: United States (US)
Launch site: AIR FORCE EASTERN TEST RANGE (AFETR)
Your satellite tracking list
FLOCK 3S 1
Track 1 satellite(s)




NASA's NSSDC Master Catalog

Two Line Element Set (TLE):
1 57329U 23099B   25199.08568496  .00000060  00000-0  19522-4 0  9990
2 57329  43.0042  83.9541 0001154 273.3331  86.7380 15.02539527110827
Source of the keplerian elements: AFSPC